When you browse on this site, cookies collect data to enhance your experience and personalize the content and advertising you see.
Visit our Privacy Policy to learn more. By continuing to use the site, you agree to this use of cookies and data.

Hourly Weather Petropavlovsk

Today, 14 August, Friday

Time Temperature Precipitation Wind Pressure Humidity
00:00 +11°C° 0 mm 3 mps 744 mmHg 84%
01:00 +11°C° 0 mm 3 mps 744 mmHg 86%
02:00 +10°C° 0 mm 3 mps 744 mmHg 88%
03:00 +10°C° 0 mm 3 mps 745 mmHg 88%
04:00 +9°C° 0 mm 3 mps 745 mmHg 89%
05:00 +9°C° 0 mm 3 mps 745 mmHg 89%
06:00 +10°C° 0 mm 3 mps 746 mmHg 85%
07:00 +11°C° 0 mm 3 mps 746 mmHg 81%
08:00 +13°C° 0 mm 3 mps 746 mmHg 77%
09:00 +14°C° 0 mm 3 mps 746 mmHg 69%
10:00 +16°C° 0 mm 3 mps 746 mmHg 62%
11:00 +17°C° 0 mm 4 mps 746 mmHg 54%
12:00 +18°C° 0 mm 3 mps 746 mmHg 53%
13:00 +18°C° 0 mm 3 mps 746 mmHg 52%
14:00 +18°C° 0 mm 3 mps 746 mmHg 52%
15:00 +18°C° 0 mm 3 mps 746 mmHg 50%
16:00 +19°C° 0 mm 2 mps 746 mmHg 49%
17:00 +19°C° 0 mm 2 mps 746 mmHg 48%
18:00 +19°C° 0 mm 1 mps 746 mmHg 53%
19:00 +16°C° 0 mm 1 mps 746 mmHg 58%
20:00 +15°C° 0 mm 1 mps 746 mmHg 63%
21:00 +14°C° 0 mm 1 mps 746 mmHg 66%
22:00 +13°C° 0 mm 1 mps 746 mmHg 68%
23:00 +12°C° 0 mm 1 mps 746 mmHg 70%

Tomorrow, 15 August, Saturday

Time Temperature Precipitation Wind Pressure Humidity
00:00 +12°C° 0 mm 1 mps 746 mmHg 73%
01:00 +11°C° 0 mm 1 mps 747 mmHg 75%
02:00 +11°C° 0 mm 1 mps 747 mmHg 77%
03:00 +10°C° 0 mm 1 mps 747 mmHg 78%
04:00 +9°C° 0 mm 0 mps 747 mmHg 79%
05:00 +9°C° 0 mm 0 mps 747 mmHg 80%
06:00 +11°C° 0 mm 1 mps 747 mmHg 75%
07:00 +13°C° 0 mm 1 mps 747 mmHg 71%
08:00 +15°C° 0 mm 1 mps 747 mmHg 66%
09:00 +16°C° 0 mm 1 mps 747 mmHg 61%
10:00 +18°C° 0 mm 1 mps 747 mmHg 57%
11:00 +19°C° 0 mm 2 mps 747 mmHg 52%
12:00 +20°C° 0 mm 2 mps 746 mmHg 49%
13:00 +21°C° 0 mm 2 mps 746 mmHg 46%
14:00 +23°C° 0 mm 2 mps 746 mmHg 44%
15:00 +23°C° 0 mm 2 mps 746 mmHg 44%
16:00 +23°C° 0 mm 2 mps 746 mmHg 45%
17:00 +23°C° 0 mm 2 mps 746 mmHg 46%
18:00 +20°C° 0 mm 3 mps 746 mmHg 52%
19:00 +19°C° 0 mm 3 mps 746 mmHg 58%
20:00 +17°C° 0 mm 3 mps 746 mmHg 64%
21:00 +16°C° 0 mm 3 mps 745 mmHg 63%
22:00 +16°C° 0 mm 3 mps 745 mmHg 63%
23:00 +14°C° 0 mm 4 mps 745 mmHg 62%

Day after tomorrow, 16 August, Sunday

Time Temperature Precipitation Wind Pressure Humidity
00:00 +14°C° 0 mm 4 mps 745 mmHg 62%
01:00 +14°C° 0 mm 4 mps 745 mmHg 62%
02:00 +14°C° 0 mm 4 mps 744 mmHg 61%
03:00 +14°C° 0 mm 4 mps 744 mmHg 62%
04:00 +14°C° 0 mm 4 mps 744 mmHg 62%
05:00 +14°C° 0 mm 4 mps 744 mmHg 63%
06:00 +15°C° 0 mm 4 mps 743 mmHg 62%
07:00 +16°C° 0 mm 5 mps 743 mmHg 62%
08:00 +17°C° 0 mm 5 mps 743 mmHg 61%
09:00 +20°C° 0 mm 5 mps 743 mmHg 58%
10:00 +21°C° 0 mm 5 mps 743 mmHg 55%
11:00 +22°C° 0 mm 5 mps 743 mmHg 52%
12:00 +23°C° 0 mm 5 mps 742 mmHg 50%
13:00 +24°C° 0 mm 6 mps 742 mmHg 47%
14:00 +26°C° 0 mm 7 mps 742 mmHg 45%
15:00 +26°C° 0 mm 6 mps 741 mmHg 46%
16:00 +24°C° 0 mm 6 mps 741 mmHg 48%
17:00 +25°C° 0 mm 5 mps 740 mmHg 49%
18:00 +23°C° 0 mm 5 mps 740 mmHg 50%
19:00 +22°C° 0 mm 5 mps 739 mmHg 52%
20:00 +20°C° 0 mm 5 mps 739 mmHg 53%
21:00 +20°C° 0 mm 5 mps 738 mmHg 55%
22:00 +20°C° 0 mm 5 mps 738 mmHg 56%
23:00 +19°C° 0 mm 5 mps 738 mmHg 57%

17 August, Monday

Time Temperature Precipitation Wind Pressure Humidity
00:00 +17°C° 1.2 mm 5 mps 737 mmHg 69%
01:00 +16°C° 1.2 mm 5 mps 737 mmHg 81%
02:00 +15°C° 1.2 mm 5 mps 736 mmHg 93%
03:00 +14°C° 0.1 mm 4 mps 736 mmHg 94%
04:00 +14°C° 0.1 mm 4 mps 736 mmHg 94%
05:00 +13°C° 0.1 mm 3 mps 736 mmHg 95%
06:00 +14°C° 0 mm 4 mps 736 mmHg 92%
07:00 +15°C° 0 mm 4 mps 736 mmHg 90%
08:00 +15°C° 0 mm 5 mps 736 mmHg 88%
09:00 +17°C° 0 mm 5 mps 736 mmHg 79%
10:00 +19°C° 0 mm 5 mps 736 mmHg 71%
11:00 +20°C° 0 mm 5 mps 736 mmHg 62%
12:00 +21°C° 0.4 mm 5 mps 736 mmHg 60%
13:00 +21°C° 0.4 mm 5 mps 736 mmHg 57%
14:00 +22°C° 0.4 mm 5 mps 735 mmHg 55%
15:00 +21°C° 0.9 mm 4 mps 735 mmHg 60%
16:00 +20°C° 0.9 mm 4 mps 735 mmHg 64%
17:00 +20°C° 0.9 mm 4 mps 735 mmHg 69%
18:00 +18°C° 0.5 mm 4 mps 735 mmHg 75%
19:00 +17°C° 0.5 mm 3 mps 735 mmHg 81%
20:00 +14°C° 0.5 mm 3 mps 735 mmHg 87%
21:00 +15°C° 0 mm 2 mps 734 mmHg 87%
22:00 +15°C° 0 mm 2 mps 734 mmHg 88%
23:00 +14°C° 0 mm 2 mps 734 mmHg 88%

18 August, Tuesday

Time Temperature Precipitation Wind Pressure Humidity
00:00 +14°C° 0 mm 1 mps 734 mmHg 89%
01:00 +14°C° 0 mm 1 mps 734 mmHg 90%
02:00 +13°C° 0 mm 1 mps 733 mmHg 91%
03:00 +13°C° 0 mm 1 mps 733 mmHg 91%
04:00 +13°C° 0 mm 1 mps 733 mmHg 91%
05:00 +11°C° 0 mm 0 mps 733 mmHg 91%
06:00 +14°C° 0 mm 1 mps 733 mmHg 87%
07:00 +15°C° 0 mm 1 mps 733 mmHg 84%
08:00 +16°C° 0 mm 2 mps 733 mmHg 81%
09:00 +17°C° 0.5 mm 3 mps 733 mmHg 78%
10:00 +18°C° 0.5 mm 4 mps 733 mmHg 75%
11:00 +17°C° 0.5 mm 5 mps 733 mmHg 73%
12:00 +19°C° 0.4 mm 5 mps 733 mmHg 69%
13:00 +19°C° 0.4 mm 5 mps 733 mmHg 66%
14:00 +20°C° 0.4 mm 5 mps 734 mmHg 62%
15:00 +19°C° 0.2 mm 5 mps 734 mmHg 62%
16:00 +19°C° 0.2 mm 5 mps 734 mmHg 62%
17:00 +19°C° 0.2 mm 5 mps 734 mmHg 62%
18:00 +18°C° 0 mm 4 mps 734 mmHg 67%
19:00 +16°C° 0 mm 3 mps 734 mmHg 72%
20:00 +14°C° 0 mm 3 mps 734 mmHg 77%
21:00 +14°C° 0 mm 3 mps 734 mmHg 78%
22:00 +13°C° 0 mm 3 mps 734 mmHg 79%
23:00 +14°C° 0 mm 2 mps 734 mmHg 81%

19 August, Wednesday

Time Temperature Precipitation Wind Pressure Humidity
00:00 +13°C° 0 mm 3 mps 734 mmHg 84%
01:00 +13°C° 0 mm 3 mps 734 mmHg 86%
02:00 +12°C° 0 mm 3 mps 733 mmHg 89%
03:00 +12°C° 0 mm 3 mps 733 mmHg 90%
04:00 +12°C° 0 mm 4 mps 733 mmHg 91%
05:00 +12°C° 0 mm 4 mps 733 mmHg 91%
06:00 +12°C° 0 mm 4 mps 733 mmHg 90%
07:00 +12°C° 0 mm 4 mps 733 mmHg 88%
08:00 +12°C° 0 mm 4 mps 733 mmHg 87%
09:00 +13°C° 0.1 mm 4 mps 733 mmHg 86%
10:00 +13°C° 0.1 mm 4 mps 733 mmHg 85%
11:00 +13°C° 0.1 mm 4 mps 733 mmHg 83%
12:00 +14°C° 0.2 mm 4 mps 734 mmHg 83%
13:00 +14°C° 0.2 mm 4 mps 734 mmHg 82%
14:00 +14°C° 0.2 mm 4 mps 734 mmHg 82%
15:00 +15°C° 0.3 mm 4 mps 734 mmHg 79%
16:00 +17°C° 0.3 mm 4 mps 734 mmHg 77%
17:00 +17°C° 0.3 mm 4 mps 734 mmHg 75%
18:00 +15°C° 0.4 mm 4 mps 734 mmHg 80%
19:00 +14°C° 0.4 mm 4 mps 734 mmHg 85%
20:00 +13°C° 0.4 mm 4 mps 734 mmHg 90%
21:00 +13°C° 0.1 mm 4 mps 734 mmHg 92%
22:00 +12°C° 0.1 mm 4 mps 734 mmHg 94%
23:00 +12°C° 0.1 mm 4 mps 734 mmHg 95%
Show more